Date,TemperatureHighF,TemperatureAvgF,TemperatureLowF,DewpointHighF,DewpointAvgF,DewpointLowF,HumidityHigh,HumidityAvg,HumidityLow,PressureMaxIn,PressureMinIn,WindSpeedMaxMPH,WindSpeedAvgMPH,GustSpeedMaxMPH,PrecipitationSumIn
2013-3-1,38.1,33.7,31.1,32.2,29.6,27.8,92,85,72,30.01,29.94,6,2,13,0.10
2013-3-2,33.0,30.1,25.2,28.8,24.2,17.0,87,79,70,30.08,29.94,8,2,11,0.00
2013-3-3,28.9,25.6,22.6,21.7,19.3,16.8,86,77,67,30.14,30.06,7,3,13,0.00
2013-3-4,45.9,32.4,24.4,28.9,21.1,15.8,85,65,35,30.27,30.13,8,2,12,0.00
2013-3-5,44.2,37.8,30.3,42.8,34.7,26.9,95,88,77,30.13,29.65,11,1,16,0.99
2013-3-6,34.2,29.4,26.9,30.4,25.9,22.8,92,87,82,30.28,29.75,8,5,13,0.01
2013-3-7,33.5,31.1,29.0,27.7,26.0,24.5,88,81,72,30.41,30.26,6,3,11,0.03
2013-3-8,42.9,33.5,26.1,29.5,26.4,23.8,91,76,57,30.47,30.37,8,2,14,0.02
2013-3-9,64.9,40.0,22.6,35.4,27.7,19.4,94,69,18,30.43,30.26,3,0,6,0.00
2013-3-10,68.6,50.3,32.7,40.2,34.6,30.4,93,61,28,30.30,30.11,7,2,11,0.00
2013-3-11,58.4,51.0,41.3,50.1,44.2,35.6,94,78,66,30.14,29.84,9,2,13,0.39
2013-3-12,49.4,41.9,29.7,47.0,37.1,27.7,95,84,60,30.09,29.81,7,2,12,0.18
2013-3-13,37.3,32.0,27.6,31.2,25.5,17.9,93,78,57,30.32,30.08,10,4,19,0.05
2013-3-14,43.7,31.5,24.7,22.7,18.1,14.8,79,59,32,30.42,30.27,8,4,14,0.00
2013-3-15,57.1,39.0,22.5,37.8,29.2,19.5,92,70,46,30.31,29.97,7,2,12,0.00
2013-3-16,69.3,50.8,35.2,55.3,43.9,32.4,95,80,48,29.97,29.73,8,2,16,0.13
2013-3-17,55.6,49.4,43.7,49.7,46.4,39.2,96,90,80,30.05,29.90,8,2,15,0.14
2013-3-18,50.3,42.4,39.1,42.4,38.4,34.9,95,86,69,30.05,29.86,8,3,14,0.82
2013-3-19,54.0,43.6,31.8,44.1,28.2,7.8,95,60,20,30.13,29.88,12,5,19,0.16
2013-3-20,50.1,38.1,27.2,30.4,18.3,11.9,89,48,24,30.15,29.88,11,4,19,0.00
2013-3-21,33.0,25.7,19.2,26.0,13.9,10.0,77,61,44,30.11,29.91,10,5,15,0.00
2013-3-22,46.0,28.6,12.5,24.1,15.2,10.1,91,62,29,30.19,30.07,4,1,8,0.00
2013-3-23,50.2,38.6,30.5,37.4,28.9,21.5,90,69,49,30.13,29.93,4,0,5,0.00
2013-3-24,42.4,38.5,31.9,38.5,35.5,29.5,93,89,83,29.95,29.51,7,3,14,0.71
2013-3-25,36.6,32.0,29.9,34.8,28.9,26.3,94,88,76,29.96,29.55,11,4,14,0.22
2013-3-26,34.5,31.6,29.5,29.2,27.6,26.3,92,85,77,30.27,29.97,7,3,14,0.11
2013-3-27,32.1,30.8,29.8,28.3,26.1,24.4,88,82,78,30.31,30.27,6,2,9,0.00